Location: *
(32.3300°N, 34.8500°E)
Time: 17:57:47
(UTC+00:00)

RESURS DK-1 - Pass Details

Date: 22 October 2019
Orbit: 558 x 560 km, 69.9° (Epoch: 12 November)

Event Time Altitude Azimuth Distance (km) Brightness Sun altitude
Exits shadow 02:08:17 27° 350° (N) 1,102 3.7 -22.0°
Drops below altitude 10° 02:10:24 10° 7° (N) 1,846 5.1 -21.5°
Sets 02:12:41 0° 14° (NNE) 2,744 6.1 -21.1°
